This is the latest recevied weather packets stored in our database for station/object KC1HBM. If no packets are shown the sender has not sent any weather packets the latest 10 day(s).
| Time | Temp. | Humidity | Pressure | Rain* | Wind** | Luminosity | Snow |
|---|---|---|---|---|---|---|---|
| 1777927748 | 22.22° C | 36% | 1002.5 hPa | 0 mm | - | 38 W/m² | - |
| 1777927446 | 22.22° C | 37% | 1002.5 hPa | 0 mm | - | 39 W/m² | - |
| 1777927146 | 21.67° C | 37% | 1002.4 hPa | 0 mm | - | 41 W/m² | - |
| 1777926842 | 22.22° C | 37% | 1002.4 hPa | 0 mm | - | 54 W/m² | - |
| 1777926538 | 21.67° C | 37% | 1002.6 hPa | 0 mm | - | 63 W/m² | - |
| 1777926235 | 21.67° C | 38% | 1002.5 hPa | 0 mm | - | 65 W/m² | - |
| 1777925931 | 21.67° C | 38% | 1002.6 hPa | 0 mm | - | 68 W/m² | - |
| 1777925629 | 21.67° C | 39% | 1002.5 hPa | 0 mm | - | 75 W/m² | - |
| 1777925326 | 21.11° C | 39% | 1002.5 hPa | 0 mm | - | 88 W/m² | - |
| 1777925023 | 20.56° C | 40% | 1002.5 hPa | 0 mm | - | 65 W/m² | - |
| 1777924719 | 20.56° C | 40% | 1002.4 hPa | 0 mm | - | 69 W/m² | - |
| 1777924415 | 20.56° C | 39% | 1002.3 hPa | 0 mm | - | 83 W/m² | - |
| 1777924112 | 20.56° C | 39% | 1002.6 hPa | 0 mm | - | 64 W/m² | - |
| 1777923808 | 20.56° C | 40% | 1002.4 hPa | 0 mm | - | 43 W/m² | - |
| 1777923504 | 21.11° C | 40% | 1002.7 hPa | 0 mm | - | 39 W/m² | - |
| 1777923202 | 21.11° C | 39% | 1002.6 hPa | 0 mm | - | 42 W/m² | - |
| 1777922900 | 21.11° C | 40% | 1002.8 hPa | 0 mm | - | 38 W/m² | - |
| 1777922598 | 21.11° C | 40% | 1002.9 hPa | 0 mm | - | 35 W/m² | - |
| 1777922296 | 20.56° C | 41% | 1002.8 hPa | 0 mm | - | 57 W/m² | - |
| 1777921993 | 20.56° C | 41% | 1002.9 hPa | 0 mm | - | 96 W/m² | - |
| 1777921689 | 20° C | 42% | 1003 hPa | 0 mm | - | 131 W/m² | - |
| 1777921385 | 19.44° C | 42% | 1002.9 hPa | 0 mm | - | 69 W/m² | - |
| 1777921081 | 19.44° C | 41% | 1003 hPa | 0 mm | - | 62 W/m² | - |
| 1777920779 | 19.44° C | 41% | 1003.3 hPa | 0 mm | - | 56 W/m² | - |
| 1777920475 | 19.44° C | 42% | 1003.1 hPa | 0 mm | - | 71 W/m² | - |
* Rain latest hour (hover to see other rain measurements)
** Current wind speed in m/s (hover to see current wind gust speed)